Location: Boulder, CO
(40.0083°N, 105.2472°W)
Time: 08:07:13
(UTC-06:00)

SORCE - Visible Passes

Search period start: 21 October 2017 00:00
Search period end: 31 October 2017 00:00
Orbit: 586 x 618 km, 40.0° (Epoch: 20 October)

Date Brightness Start Highest point End Pass type
(mag) Time Alt. Az. Time Alt. Az. Time Alt. Az.
21 Oct 7.6 04:44:39 31° ESE 04:44:39 31° ESE 04:47:03 10° ESE visible
21 Oct 7.1 06:21:21 16° W 06:24:11 30° SSW 06:28:07 10° SE visible
22 Oct 7.4 04:55:13 33° SE 04:55:13 33° SE 04:57:49 10° ESE visible
22 Oct 7.7 06:31:56 11° WSW 06:34:49 19° SSW 06:38:02 10° SSE visible
23 Oct 7.4 05:05:52 29° SSE 05:05:52 29° SSE 05:08:24 10° SE visible
23 Oct 8.2 06:43:56 10° WSW 06:45:23 11° SW 06:46:50 10° SSW visible
24 Oct 7.7 05:16:35 21° S 05:16:35 21° S 05:18:41 10° SSE visible
25 Oct 8.2 05:27:22 14° S 05:27:22 14° S 05:28:27 10° S visible
29 Oct 8.4 20:06:54 10° S 20:07:30 12° S 20:07:30 12° S visible
30 Oct 8.1 20:16:42 10° SSW 20:18:11 18° SSW 20:18:11 18° SSW visible
